When you browse on this site, cookies collect data to enhance your experience and personalize the content and advertising you see.
Visit our Privacy Policy to learn more. By continuing to use the site, you agree to this use of cookies and data.
EN

Hourly Weather Fier

Today, 15 July, Wednesday

Time Temperature Precipitation Wind Pressure Humidity
00:00 +22°C° 0 mm 1 mps 759 mmHg 71%
01:00 +22°C° 0 mm 1 mps 759 mmHg 71%
02:00 +22°C° 0 mm 1 mps 759 mmHg 72%
03:00 +21°C° 0 mm 1 mps 759 mmHg 74%
04:00 +21°C° 0 mm 1 mps 759 mmHg 75%
05:00 +23°C° 0 mm 1 mps 759 mmHg 69%
06:00 +24°C° 0 mm 1 mps 759 mmHg 62%
07:00 +26°C° 0 mm 1 mps 759 mmHg 56%
08:00 +28°C° 0 mm 1 mps 759 mmHg 50%
09:00 +29°C° 0 mm 1 mps 759 mmHg 44%
10:00 +31°C° 0 mm 2 mps 760 mmHg 38%
11:00 +31°C° 0 mm 3 mps 759 mmHg 37%
12:00 +31°C° 0 mm 3 mps 759 mmHg 36%
13:00 +33°C° 0 mm 4 mps 759 mmHg 35%
14:00 +32°C° 0 mm 4 mps 759 mmHg 37%
15:00 +31°C° 0 mm 3 mps 759 mmHg 39%
16:00 +30°C° 0 mm 3 mps 758 mmHg 42%
17:00 +29°C° 0 mm 3 mps 758 mmHg 47%
18:00 +27°C° 0 mm 2 mps 759 mmHg 53%
19:00 +26°C° 0 mm 2 mps 759 mmHg 58%
20:00 +25°C° 0 mm 2 mps 759 mmHg 61%
21:00 +24°C° 0 mm 2 mps 759 mmHg 64%
22:00 +24°C° 0 mm 2 mps 759 mmHg 67%
23:00 +23°C° 0.1 mm 2 mps 759 mmHg 67%

Tomorrow, 16 July, Thursday

Time Temperature Precipitation Wind Pressure Humidity
00:00 +23°C° 0.1 mm 2 mps 759 mmHg 67%
01:00 +23°C° 0.1 mm 2 mps 759 mmHg 67%
02:00 +21°C° 0.1 mm 2 mps 758 mmHg 66%
03:00 +21°C° 0.1 mm 2 mps 758 mmHg 65%
04:00 +21°C° 0.1 mm 2 mps 758 mmHg 64%
05:00 +24°C° 0 mm 1 mps 758 mmHg 60%
06:00 +25°C° 0 mm 1 mps 758 mmHg 55%
07:00 +27°C° 0 mm 1 mps 758 mmHg 51%
08:00 +28°C° 0 mm 2 mps 758 mmHg 48%
09:00 +29°C° 0 mm 2 mps 758 mmHg 45%
10:00 +30°C° 0 mm 3 mps 758 mmHg 42%
11:00 +31°C° 0 mm 3 mps 758 mmHg 42%
12:00 +32°C° 0 mm 4 mps 758 mmHg 43%
13:00 +32°C° 0 mm 5 mps 758 mmHg 43%
14:00 +32°C° 0 mm 4 mps 757 mmHg 44%
15:00 +32°C° 0 mm 4 mps 757 mmHg 45%
16:00 +30°C° 0 mm 4 mps 757 mmHg 46%
17:00 +29°C° 0 mm 4 mps 757 mmHg 53%
18:00 +27°C° 0 mm 3 mps 757 mmHg 59%
19:00 +25°C° 0 mm 2 mps 757 mmHg 65%
20:00 +24°C° 0 mm 2 mps 757 mmHg 67%
21:00 +24°C° 0 mm 2 mps 757 mmHg 70%
22:00 +23°C° 0 mm 2 mps 757 mmHg 72%
23:00 +22°C° 0 mm 1 mps 757 mmHg 71%

Day after tomorrow, 17 July, Friday

Time Temperature Precipitation Wind Pressure Humidity
00:00 +22°C° 0 mm 1 mps 757 mmHg 71%
01:00 +22°C° 0 mm 1 mps 757 mmHg 70%
02:00 +22°C° 0 mm 1 mps 757 mmHg 71%
03:00 +21°C° 0 mm 1 mps 756 mmHg 71%
04:00 +21°C° 0 mm 1 mps 756 mmHg 72%
05:00 +23°C° 0 mm 1 mps 756 mmHg 65%
06:00 +25°C° 0 mm 1 mps 756 mmHg 59%
07:00 +26°C° 0 mm 1 mps 756 mmHg 53%
08:00 +28°C° 0 mm 2 mps 756 mmHg 48%
09:00 +30°C° 0 mm 2 mps 756 mmHg 43%
10:00 +32°C° 0 mm 2 mps 756 mmHg 38%
11:00 +33°C° 0 mm 3 mps 756 mmHg 38%
12:00 +33°C° 0 mm 4 mps 755 mmHg 38%
13:00 +34°C° 0 mm 5 mps 755 mmHg 38%
14:00 +33°C° 0 mm 5 mps 755 mmHg 39%
15:00 +32°C° 0 mm 4 mps 755 mmHg 41%
16:00 +32°C° 0 mm 4 mps 754 mmHg 42%
17:00 +29°C° 0 mm 3 mps 755 mmHg 48%
18:00 +27°C° 0 mm 2 mps 755 mmHg 54%
19:00 +26°C° 0 mm 1 mps 755 mmHg 60%
20:00 +25°C° 0 mm 1 mps 755 mmHg 62%
21:00 +24°C° 0 mm 1 mps 756 mmHg 64%
22:00 +21°C° 0 mm 0 mps 756 mmHg 65%
23:00 +23°C° 0 mm 1 mps 756 mmHg 66%

18 July, Saturday

Time Temperature Precipitation Wind Pressure Humidity
00:00 +23°C° 0 mm 1 mps 756 mmHg 67%
01:00 +22°C° 0 mm 1 mps 756 mmHg 68%
02:00 +22°C° 0 mm 1 mps 756 mmHg 68%
03:00 +22°C° 0 mm 1 mps 756 mmHg 68%
04:00 +21°C° 0 mm 1 mps 755 mmHg 67%
05:00 +23°C° 0 mm 1 mps 755 mmHg 61%
06:00 +25°C° 0 mm 1 mps 755 mmHg 55%
07:00 +27°C° 0 mm 1 mps 755 mmHg 49%
08:00 +28°C° 0 mm 2 mps 755 mmHg 46%
09:00 +30°C° 0 mm 2 mps 755 mmHg 43%
10:00 +31°C° 0 mm 3 mps 755 mmHg 40%
11:00 +32°C° 0 mm 4 mps 755 mmHg 41%
12:00 +32°C° 0 mm 4 mps 755 mmHg 42%
13:00 +32°C° 0 mm 5 mps 755 mmHg 43%
14:00 +32°C° 0 mm 5 mps 755 mmHg 44%
15:00 +30°C° 0 mm 5 mps 755 mmHg 46%
16:00 +30°C° 0 mm 5 mps 755 mmHg 48%
17:00 +28°C° 0 mm 4 mps 755 mmHg 57%
18:00 +27°C° 0 mm 4 mps 755 mmHg 65%
19:00 +25°C° 0 mm 3 mps 755 mmHg 73%
20:00 +24°C° 0 mm 3 mps 756 mmHg 78%
21:00 +23°C° 0 mm 2 mps 756 mmHg 83%
22:00 +21°C° 0 mm 2 mps 756 mmHg 88%
23:00 +21°C° 0 mm 2 mps 757 mmHg 89%

19 July, Sunday

Time Temperature Precipitation Wind Pressure Humidity
00:00 +22°C° 0 mm 1 mps 757 mmHg 90%
01:00 +21°C° 0 mm 1 mps 757 mmHg 91%
02:00 +21°C° 0 mm 1 mps 757 mmHg 91%
03:00 +21°C° 0 mm 1 mps 757 mmHg 91%
04:00 +21°C° 0 mm 1 mps 757 mmHg 91%
05:00 +22°C° 0 mm 1 mps 757 mmHg 85%
06:00 +24°C° 0 mm 1 mps 757 mmHg 79%
07:00 +25°C° 0 mm 1 mps 757 mmHg 73%
08:00 +26°C° 0 mm 2 mps 757 mmHg 65%
09:00 +28°C° 0 mm 3 mps 757 mmHg 57%
10:00 +30°C° 0 mm 3 mps 757 mmHg 49%
11:00 +30°C° 0 mm 4 mps 757 mmHg 48%
12:00 +32°C° 0 mm 5 mps 757 mmHg 47%
13:00 +32°C° 0 mm 5 mps 757 mmHg 46%
14:00 +32°C° 0 mm 5 mps 757 mmHg 48%
15:00 +30°C° 0 mm 5 mps 757 mmHg 49%
16:00 +29°C° 0 mm 5 mps 757 mmHg 51%
17:00 +28°C° 0 mm 4 mps 757 mmHg 58%
18:00 +26°C° 0 mm 3 mps 757 mmHg 64%
19:00 +25°C° 0 mm 2 mps 757 mmHg 71%
20:00 +24°C° 0 mm 2 mps 758 mmHg 75%
21:00 +23°C° 0 mm 2 mps 758 mmHg 80%
22:00 +21°C° 0 mm 2 mps 758 mmHg 84%
23:00 +21°C° 0 mm 2 mps 758 mmHg 85%

20 July, Monday

Time Temperature Precipitation Wind Pressure Humidity
00:00 +22°C° 0 mm 1 mps 758 mmHg 85%
01:00 +22°C° 0 mm 1 mps 758 mmHg 86%
02:00 +21°C° 0 mm 1 mps 758 mmHg 86%
03:00 +21°C° 0 mm 1 mps 758 mmHg 86%
04:00 +21°C° 0 mm 1 mps 758 mmHg 86%
05:00 +23°C° 0 mm 1 mps 758 mmHg 78%
06:00 +25°C° 0 mm 1 mps 758 mmHg 71%
07:00 +26°C° 0 mm 1 mps 758 mmHg 64%
08:00 +28°C° 0 mm 1 mps 758 mmHg 57%
09:00 +30°C° 0 mm 2 mps 758 mmHg 51%
10:00 +33°C° 0 mm 3 mps 758 mmHg 44%
11:00 +33°C° 0 mm 4 mps 758 mmHg 42%
12:00 +34°C° 0 mm 5 mps 758 mmHg 40%
13:00 +35°C° 0 mm 6 mps 758 mmHg 38%
14:00 +34°C° 0 mm 6 mps 758 mmHg 40%
15:00 +33°C° 0 mm 6 mps 757 mmHg 42%
16:00 +33°C° 0 mm 6 mps 757 mmHg 45%
17:00 +30°C° 0 mm 5 mps 757 mmHg 51%
18:00 +28°C° 0 mm 3 mps 757 mmHg 58%
19:00 +26°C° 0 mm 2 mps 758 mmHg 64%
20:00 +25°C° 0 mm 2 mps 758 mmHg 68%
21:00 +24°C° 0 mm 1 mps 758 mmHg 71%
22:00 +24°C° 0 mm 1 mps 758 mmHg 74%
23:00 +23°C° 0 mm 1 mps 758 mmHg 73%
Show more